Location: Krasnoyarskiy Pitomnik
(51.1333°N, 71.6167°E)
Time: 09:53:44
(UTC+00:00)

NOSS 3-2 (C) - Pass Details

Date: 22 October 2021
Orbit: 770 x 1442 km, 63.4° (Epoch: 03 November)

Event Time Altitude Azimuth Distance (km) Brightness Sun altitude
Rises 15:40:13 0° 310° (NW) 3,770 7.6 -33.5°
Reaches altitude 10° 15:42:49 10° 316° (NW) 2,911 6.7 -33.9°
Enters shadow 15:48:53 46° 15° (NNE) 1,559 4.5 -34.7°
